Location: Sienna
(49.6899°N, 19.1328°E)
Time: 06:10:41
(UTC+02:00)

ISS - Visible Passes

Search period start: 26 April 2019 00:00
Search period end: 06 May 2019 00:00
Orbit: 408 x 410 km, 51.6° (Epoch: 26 April)

Date Brightness Start Highest point End Pass type
(mag) Time Alt. Az. Time Alt. Az. Time Alt. Az.
29 Apr -0.9 04:39:09 10° SE 04:39:33 10° SE 04:39:57 10° SE visible
01 May -1.8 04:31:31 10° SSW 04:34:04 21° SE 04:36:37 10° E visible
02 May -1.3 03:41:51 10° SSE 03:43:25 13° SE 03:45:05 10° ESE visible
03 May -2.9 04:25:38 11° SW 04:28:39 39° SSE 04:31:46 10° E visible
04 May -2.3 03:36:36 20° S 03:37:54 26° SE 03:40:43 10° E visible
05 May -1.7 02:47:31 17° SE 02:47:31 17° SE 02:49:24 10° E visible
05 May -3.7 04:20:15 11° WSW 04:23:20 71° SSE 04:26:39 10° ENE visible
